map of TNN home
TNN - Airport
Location
City:  Tainan, Taiwan
ICAO:RCNN
IATA:TNN

Details
Type:Airport (Aerodrome, Airfield)
Use:Military
Latitude:2257'01"N (22.950361)
Longitude:12012'21"E (120.205778)
Datum:WGS 1984
Elevation:63 ft (19 m)
Variation:3.94W (WMM2015v2 magnetic declination)
-0.08 annual change
Runways:2
Longest:10007 × 148 ft (3050 × 45 m), paved

Time
Time Zone:UTC+8
Local Time:

Weather
METAR:RCNN 041330Z 35006KT 7000 FEW014 BKN050 18/15 Q1017 RMK A3006
TAF:RCNN 041100Z 0412/0512 36008KT 9999 FEW012 SCT032 BKN060 TX27/0506Z TN17/0420Z
BECMG 0417/0419 7000 FEW012 SCT080
BECMG 0420/0423 5000 BR
BECMG 0501/0503 8000 FEW012 BKN060
BECMG 0504/0507 33008KT 9999 FEW012 SCT080

Related Locations
Nearby:
Farthest:FLM: 12387 mi / 19936 km
Filadelfia, 19, PY

Find:

   beyond  
but within

Other Information
Maps:
NOTAMs:
Links:
Sources:

  
  • flag of Taiwan
  

Sectional Chart

Flight Planning
at skyvector.com

Satellite Image

Google Maps Satellite view

 

Copyright © 2004-2019 Karl L. Swartz. All rights reserved.
The Great Circle Mapper name and logo are trademarks of the Great Circle Mapper.
All other trademarks mentioned herein belong to their respective owners.
Please see credits for attibutions and further copyright information.

  Follow gcmap on Facebook Follow gcmap on Twitter GCmap on LinkedIn

hCard Microformat

Geo Microformat